Location: Aciu?a
(46.2833°N, 22.4500°E)
Time: 05:49:07
(UTC+00:00)

Cosmos 1626 Rocket - Pass Details

Date: 25 October 2021
Orbit: 603 x 631 km, 82.5° (Epoch: 04 December)

Event Time Altitude Azimuth Distance (km) Brightness Sun altitude
Rises 16:58:55 0° 347° (NNW) 2,869 7.1 -16.6°
Reaches altitude 10° 17:01:10 10° 343° (NNW) 1,960 6.3 -17.0°
Maximum altitude 17:05:25 58° 265° (W) 708 4.1 -17.7°
Drops below altitude 10° 17:09:38 10° 187° (S) 1,947 6.2 -18.4°
Sets 17:11:52 0° 183° (S) 2,847 7.0 -18.8°
